STARLINK-3752, 52312

Orbit data source: Space-Track

STARLINK-3752, 52312 is a payload satellite owned by SpaceX/Seattle (US) in LEO that was launched on Thu, 21 Apr 2022 UTC via an FALCON 9 launch vehicle from the Air Force Eastern Test Range (AFETR). Payload-class satellites include a variety of spacecraft equipped with specific instruments for various scientific and technological missions. These include communications satellites like Starlink; space stations such as the ISS; scientific satellites like the Hubble; Earth observation satellites from companies like Planet Labs, Umbra, and HawkEye 360; GPS; miniature CubeSats for education and research; and military/defense satellites.

Loading next visibility...
Identifier
52312, 2022-041BD
Orbit
LEO
Country
Flag of USUS
Related business
Manufacturer
SpaceX/Seattle
Mission
Operational Commercial Communications
Bus & Motor
STARLINK, Unknown motor
Mass
297 kg wet, ~275 kg dry
Launch date (UTC)
2022-04-21 (4 years ago)
Launch vehicle
FALCON 9
Launch site
Air Force Eastern Test Range (AFETR)
Object type
Payload
Rocket body
Debris
Shape & HBR
Box + 1 Pan, 10.1 m
Radar Cross Section
11.087 m², Large (>1 m²)

Expand to show TLE details & history
Last TLE update: 6 hours ago

TLE from 6 hours ago
0 STARLINK-3752
1 52312U 22041BD  26221.85734387  .00002203  00000-0  76327-4 0  9996
2 52312  53.1624 116.0405 0001212  98.0468 262.0673 15.34394901239069
Epoch: 2026-08-09T20:34Z
TLE epoch observation values (Epoch: 2026-08-09T20:34:34.510Z)
Latitude
0.00005°
Longitude
-150.95157°
Altitude
463.735 km
Speed
7.636 km/s
True Right ascension
07h 44m 09s
True Declination
0° 00' 00"
Sunlit
Object was in daylight at epoch
Visualization orbit readout
Latitude
Unknown
Longitude
Unknown
Altitude
Unknown
Speed
Unknown
Apparent Right ascension
Unknown
Apparent Declination
Unknown
Sunlit
N/A
Visualization observer readout
Local Sidereal Time
16:34:35
Azimuth
Unknown
Elevation
Unknown
Doppler factor
Unknown
Orbital elements
Apogee altitude
463.804 km
Perigee altitude
462.146 km
Semi-major axis
6,841.112 km
Eccentricity
0.00012
Inclination
53.1624°
RAAN
116.0405°
Arg. of periapsis
98.0468°
True anomaly
262.05354°
Mean anomaly
262.0673°
Eccentric anomaly
262.06042°
Mean motion
3.83578 °/min
Orbital period
93.85 mins
BSTAR
0.000076327
Loading maneuver chart data...
Computing Atmospheric mass density...
Loading historical data...
Loading historical data...
Loading historical data...
Loading historical data...
Loading historical data...
Loading historical data...
Loading historical data...

Documentation

Showing up to 5 results
|